Погода в Першине

Россия / Тюменская область     56°24′34″N   66°46′26″E
темп.,
°C
ветер,
м/с
пор.,
м/с
влажн.,
%
обл.,
%
осадки,
мм/ч
давл.,
гПа
погр.,
м
14 июня, пн
пн1423:00+17ююз23645 0.0 102321
02:00+16ююз22705 0.0 102320
05:00+15юз33725 0.0 102438
08:00+22юз34565 0.0 1024282
11:00+26юз45425 0.0 10231278
14:00+27юз56331 0.0 10222581
17:00+27юз46395 0.0 10211271
20:00+23зюз226211 0.0 102015
15 июня, вт
вт1523:00+18ююз336011 0.0 101932
02:00+17ююз486197 0.0 1019113
05:00+17юз3763100 0.0 1019127
08:00+21юз4959100 0.0 1018309
11:00+26юз6845100 0.0 1017741
14:00+29юз5837100 0.0 10152049
17:00+28зюз5944100 0.0 1014799
20:00+23зюз41063100 0.0 1014206
16 июня, ср
ср1623:00+21зсз4960100 0.0 1013261
02:00+17зюз2381100 0.1 101442
05:00+17з228065 0.2 101423
08:00+22з466512 0.1 1014445
11:00+27з59475 0.1 10141436
14:00+29з693947 0.0 10122468
17:00+27зсз685178 0.0 10122123
20:00+24зсз34694 0.0 101171
17 июня, чт
чт1723:00+20юз22780 0.1 101217
02:00+18юз36835 0.1 101184
05:00+18ююз37845 0.1 1010129
08:00+23юз46640 0.2 1009389
11:00+27юз45485 0.2 10071006
14:00+29юз46435 0.0 10061827
17:00+29зюз45435 0.0 10031879
20:00+24ююз38655 0.0 1002156
18 июня, пт
пт1823:00+16сз61494100 1.5 1004437
02:00+16ссв229736 2.9 100143
05:00+13ссз81197100 3.3 1004581
08:00+10ссз81396100 3.1 1005660
11:00+9с71493100 9.6 1008732
14:00+14с91059100 0.0 10081372
17:00+11ссз81164100 0.0 10101149
20:00+9с7176799 0.0 10111154